Simultaneous Nadir Overpasses (SNOs) Predictions

Prediction of SNOs between AQUA and METOP-A Satellite Orbit:

Table of predicted SNOs for the next 14.0 days since TLE Epoch: 7/6/2018
Index Date (AQUA) Time (AQUA) Lat,Lon (AQUA) SZA (AQUA ) Date (METOP-A) Time (METOP-A) Lat,Lon (METOP-A) SZA (METOP-A ) Distance(km) Time Diff (sec)
1 07/08/2018 00:35:13 74.39, 164.31 51.99 07/08/2018 00:34:10 74.40, 164.27 52.01 1.45 63
2 07/08/2018 01:24:41 -74.48, -28.27 127.91 07/08/2018 01:24:50 -74.47, -28.22 127.92 2.02 9
3 07/08/2018 02:14:14 74.79, 138.59 52.44 07/08/2018 02:15:23 74.81, 140.02 52.38 41.93 69
4 07/10/2018 20:09:28 74.41,-129.30 52.35 07/10/2018 20:08:27 74.39,-129.33 52.36 1.76 61
5 07/10/2018 20:58:56 -74.49, 38.13 127.55 07/10/2018 20:59:07 -74.47, 38.19 127.58 3.06 11
6 07/10/2018 21:48:30 74.86,-155.15 52.87 07/10/2018 21:49:39 74.85,-153.45 52.77 49.54 69
7 07/13/2018 15:43:42 74.43, -62.92 52.78 07/13/2018 15:42:42 74.44, -62.81 52.79 3.32 60
8 07/13/2018 16:33:09 -74.46, 104.65 127.19 07/13/2018 16:33:23 -74.47, 104.60 127.18 1.85 14
9 07/13/2018 17:22:45 74.94, -88.91 53.35 07/13/2018 17:23:53 74.95, -86.79 53.25 61.20 68
10 07/16/2018 11:17:56 74.41, 3.58 53.19 07/16/2018 11:16:59 74.43, 3.58 53.23 2.78 57
11 07/16/2018 12:07:24 -74.48, 171.03 126.72 07/16/2018 12:07:40 -74.47, 171.00 126.74 1.70 16
12 07/16/2018 12:57:01 75.01, -22.67 53.88 07/16/2018 12:58:08 75.04, -20.13 53.77 73.11 67
13 07/19/2018 06:52:11 74.44, 69.94 53.72 07/19/2018 06:51:16 74.42, 69.97 53.71 1.74 55
14 07/19/2018 07:41:38 -74.46,-122.48 126.25 07/19/2018 07:41:57 -74.47,-122.59 126.25 3.51 19




NCC Satellite Simultaneous Nadir Overpasses (SNOs) Prediction Service
